Flag for Pakistan Weather past 2 weeks in Rawalpindi, Pakistan

Now
86 °F

Scattered clouds.


Feels Like: 84 °F
Forecast: 61 / 93 °F
Wind: 12 mph from Southwest

Location: Islamabad Airport

Current Time: Apr 28, 2015 at 8:09:01 PM

Latest Report: Apr 28, 2015 at 6:00 PM


Visibility: N/A

Pressure: 29.77 "Hg

Humidity: 31%

Dew point: 52 °F

Location of RawalpindiLocation

Historic Weather in Rawalpindi — Graph

°F

Rawalpindi temperature yesterday

Maximum temperature yesterday: 72 °F (at 12:00 AM)
Minimum temperature yesterday: 59 °F (at 11:00 AM)
Average temperature yesterday: 67 °F

Past Weeks' High & Low Weather Summary

 TemperatureHumidityPressure
High102 °F (Apr 23, 8:00 PM)100% (Apr 16, 4:00 AM)30.15 "Hg (Apr 16, 4:00 AM)
Low59 °F (Apr 27, 11:00 AM)17% (Apr 23, 8:00 PM)29.71 "Hg (Apr 18, 3:00 PM)
Average77 °F57%29.87 "Hg
* Reported Apr 13 6:00 PM — Apr 28 6:00 PM, Rawalpindi, Weather by CustomWeather, © 2015

Note: Actual official high and low records may vary slightly from our data, if they occured in-between our weather recording intervals... More about our weather records

Advertising

Rawalpindi weather history for previous 24 hours

 ConditionsComfort  
Time TempWeatherWind HumidityBarometerVisibility
6:00 PM
Tue, Apr 28
86 °FScattered clouds.12 mph31%29.77 "HgN/A
5:00 PM88 °FScattered clouds.9 mph29%29.77 "HgN/A
4:00 PM90 °FPassing clouds.12 mph31%29.77 "HgN/A
3:00 PM88 °FPassing clouds.12 mph31%29.80 "Hg4 mi
2:00 PM88 °FPassing clouds.12 mph31%29.80 "Hg4 mi
1:00 PM88 °FClear.9 mph31%29.83 "Hg4 mi
12:00 PM84 °FClear.12 mph40%29.83 "Hg4 mi
11:00 AM81 °FHaze.5 mph48%29.86 "Hg3 mi
10:00 AM77 °FHaze.5 mph57%29.86 "Hg3 mi
9:00 AM72 °FHaze.5 mph65%29.86 "Hg2 mi
8:00 AM68 °FHaze.No wind78%29.86 "Hg2 mi
7:00 AM64 °FFog.No wind83%29.86 "Hg2 mi
6:00 AM63 °FFog.No wind88%29.86 "Hg2 mi
5:00 AM61 °FFog.No wind88%29.83 "Hg2 mi
4:00 AM63 °FHaze.5 mph83%29.83 "Hg3 mi
2:00 AM63 °FHaze.No wind83%29.86 "Hg3 mi
1:00 AM64 °FHaze.5 mph83%29.86 "Hg3 mi
12:00 AM64 °FHaze.9 mph83%29.89 "Hg3 mi
11:00 PM
Mon, Apr 27
64 °FHaze.14 mph83%29.89 "Hg3 mi
10:00 PM64 °FPassing clouds.9 mph83%29.89 "Hg3 mi
9:00 PM66 °FPassing clouds.7 mph78%29.92 "Hg3 mi
8:00 PM66 °FPassing clouds.9 mph78%29.92 "Hg3 mi
Weather by CustomWeather, © 2015

See weather overviewHow to use our weather pages